GW1348 Weather Reports


Display with metric or nautical units.
time (UTC)temp
F
wind
direction
speed
MPH
gust
MPH
rain 1hr
in
rain 24hr
in
rain mn
in
humidity
%
barometer
mb
20260510190532 39 0 0.0 6.0 0.00 0.00 0.00 73 1006.7
20260510190053 40 0 1.0 6.0 0.00 0.00 0.00 72 1006.7
20260510185529 40 153 0.0 3.0 0.00 0.00 0.00 72 1006.7
20260510185030 40 3 1.0 3.0 0.00 0.00 0.00 71 1006.5
20260510184540 40 107 0.0 3.0 0.00 0.00 0.00 70 1006.5
20260510184029 41 108 0.0 3.0 0.00 0.00 0.00 69 1006.5
20260510183529 41 135 0.0 3.0 0.00 0.00 0.00 68 1006.5
20260510183045 41 0 0.0 3.0 0.00 0.00 0.00 68 1006.5
20260510182529 42 0 0.0 3.0 0.00 0.00 0.00 67 1006.4
20260510182029 42 0 0.0 3.0 0.00 0.00 0.00 66 1006.4
20260510181545 42 0 0.0 3.0 0.00 0.00 0.00 66 1006.4
20260510181033 42 0 0.0 4.0 0.00 0.00 0.00 66 1006.5
20260510180537 42 1 2.0 4.0 0.00 0.00 0.00 65 1006.4
20260510180051 42 0 0.0 4.0 0.00 0.00 0.00 64 1006.5
20260510175530 42 0 1.0 4.0 0.00 0.00 0.00 64 1006.5
20260510175033 42 0 0.0 3.0 0.00 0.00 0.00 65 1006.7
20260510174542 42 135 0.0 5.0 0.00 0.00 0.00 64 1006.6
20260510174032 42 155 1.0 5.0 0.00 0.00 0.00 65 1006.5
20260510173534 42 331 0.0 3.0 0.00 0.00 0.00 65 1006.6
20260510173041 42 0 0.0 2.0 0.00 0.00 0.00 65 1006.7
20260510172529 42 0 0.0 3.0 0.00 0.00 0.00 65 1006.6
20260510172034 42 0 1.0 5.0 0.00 0.00 0.00 65 1006.6
20260510171548 42 27 1.0 5.0 0.00 0.00 0.00 66 1006.6
20260510171037 42 357 1.0 5.0 0.00 0.00 0.00 65 1006.5
20260510170537 42 0 1.0 5.0 0.00 0.00 0.00 65 1006.7
20260510170053 42 81 1.0 5.0 0.00 0.00 0.00 65 1006.7
20260510165533 42 0 1.0 7.0 0.00 0.00 0.00 65 1006.8
20260510165033 43 307 1.0 9.0 0.00 0.00 0.00 64 1006.8
20260510164544 43 89 2.0 9.0 0.00 0.00 0.00 63 1006.9
20260510164032 44 28 2.0 6.0 0.00 0.00 0.00 62 1007.0
20260510163530 44 353 1.0 5.0 0.00 0.00 0.00 61 1007.1
20260510163043 44 38 2.0 5.0 0.00 0.00 0.00 60 1007.1
20260510162533 44 93 0.0 4.0 0.00 0.00 0.00 60 1007.1
20260510162034 44 0 0.0 7.0 0.00 0.00 0.00 61 1007.2
20260510161541 44 150 1.0 7.0 0.00 0.00 0.00 60 1007.1
20260510161032 44 0 0.0 4.0 0.00 0.00 0.00 61 1007.1
20260510160531 44 86 1.0 4.0 0.00 0.00 0.00 60 1007.0
20260510160051 45 326 1.0 4.0 0.00 0.00 0.00 61 1007.1
20260510155531 45 161 1.0 5.0 0.00 0.00 0.00 61 1007.1
20260510155030 45 79 1.0 7.0 0.00 0.00 0.00 61 1007.2
20260510154554 45 0 1.0 9.0 0.00 0.00 0.00 60 1007.2
20260510154030 46 0 1.0 9.0 0.00 0.00 0.00 60 1007.2
20260510153534 46 160 1.0 6.0 0.00 0.00 0.00 59 1007.3
20260510153045 46 338 2.0 6.0 0.00 0.00 0.00 59 1007.3
20260510152533 46 57 1.0 4.0 0.00 0.00 0.00 58 1007.4
20260510152035 46 95 2.0 6.0 0.00 0.00 0.00 59 1007.5
20260510151542 46 144 2.0 6.0 0.00 0.00 0.00 58 1007.5
20260510151033 46 103 2.0 6.0 0.00 0.00 0.00 57 1007.5
20260510150532 46 53 1.0 5.0 0.00 0.00 0.00 57 1007.5
20260510150042 46 20 2.0 6.0 0.00 0.00 0.00 56 1007.5
20260510145532 46 68 2.0 6.0 0.00 0.00 0.00 59 1007.5
20260510145048 45 328 1.0 5.0 0.00 0.00 0.00 59 1007.7
20260510144603 45 41 1.0 5.0 0.00 0.00 0.00 60 1007.9
20260510144030 45 18 2.0 5.0 0.00 0.00 0.00 61 1007.9
20260510143533 45 159 2.0 7.0 0.00 0.00 0.00 61 1007.9
20260510143047 45 146 1.0 7.0 0.00 0.00 0.00 61 1007.9
20260510142532 45 194 2.0 7.0 0.00 0.00 0.00 61 1008.0
20260510142030 46 38 2.0 8.0 0.00 0.00 0.00 59 1008.0
20260510141544 48 211 1.0 8.0 0.00 0.00 0.00 59 1007.8
20260510141030 48 104 1.0 16.0 0.00 0.00 0.00 57 1008.0
20260510140530 47 63 2.0 16.0 0.00 0.00 0.00 56 1008.0
20260510140045 48 55 4.0 16.0 0.00 0.00 0.00 54 1007.9
20260510135530 48 82 2.0 7.0 0.00 0.00 0.00 57 1007.9
20260510135031 47 231 1.0 7.0 0.00 0.00 0.00 59 1007.8
20260510134548 47 13 1.0 7.0 0.00 0.00 0.00 60 1007.9
20260510134029 46 148 1.0 7.0 0.00 0.00 0.00 58 1007.9
20260510133534 46 172 2.0 6.0 0.00 0.00 0.00 56 1008.0
20260510133043 47 3 1.0 5.0 0.00 0.00 0.00 55 1007.9
20260510132532 48 117 1.0 4.0 0.00 0.00 0.00 54 1007.8
20260510132031 48 59 1.0 6.0 0.00 0.00 0.00 56 1007.8
20260510131543 49 127 1.0 6.0 0.00 0.00 0.00 56 1007.9
20260510131030 49 122 1.0 8.0 0.00 0.00 0.00 55 1007.7
20260510130530 49 94 1.0 8.0 0.00 0.00 0.00 55 1007.8
20260510130044 48 31 1.0 7.0 0.00 0.00 0.00 53 1007.8
20260510125530 47 169 3.0 9.0 0.00 0.00 0.00 49 1007.7
20260510125030 48 9 3.0 9.0 0.00 0.00 0.00 46 1007.7
20260510124557 48 56 2.0 8.0 0.00 0.00 0.00 49 1007.9
20260510124030 48 148 2.0 9.0 0.00 0.00 0.00 50 1007.9
20260510123530 49 101 1.0 9.0 0.00 0.00 0.00 51 1008.0
20260510123049 49 67 2.0 7.0 0.00 0.00 0.00 50 1007.9
20260510122530 49 189 3.0 7.0 0.00 0.00 0.00 46 1007.9
20260510122032 49 56 1.0 4.0 0.00 0.00 0.00 48 1007.9
20260510121548 48 160 2.0 4.0 0.00 0.00 0.00 46 1007.9
20260510121030 48 114 0.0 5.0 0.00 0.00 0.00 47 1007.9
20260510120535 47 151 2.0 5.0 0.00 0.00 0.00 48 1007.9
20260510120047 48 77 1.0 6.0 0.00 0.00 0.00 46 1008.1
20260510115530 49 10 2.0 6.0 0.00 0.00 0.00 44 1008.0
20260510115033 50 155 1.0 9.0 0.00 0.00 0.00 44 1008.1
20260510114548 50 8 1.0 9.0 0.00 0.00 0.00 43 1008.2
20260510114030 50 13 3.0 9.0 0.00 0.00 0.00 42 1008.2
20260510113530 50 43 2.0 7.0 0.00 0.00 0.00 43 1008.3
20260510113041 49 58 2.0 7.0 0.00 0.00 0.00 45 1008.2
20260510112534 49 58 2.0 8.0 0.00 0.00 0.00 48 1008.4
20260510112030 48 105 1.0 8.0 0.00 0.00 0.00 52 1008.6
20260510111549 46 82 3.0 11.0 0.00 0.00 0.00 52 1008.6
20260510111029 46 98 2.0 11.0 0.00 0.00 0.00 54 1008.8
20260510110533 47 151 4.0 11.0 0.00 0.00 0.00 53 1008.8
20260510110044 47 146 3.0 6.0 0.00 0.00 0.00 55 1008.9
20260510105530 47 1 1.0 6.0 0.00 0.00 0.00 58 1008.9
20260510105031 46 121 2.0 6.0 0.00 0.00 0.00 59 1009.0
20260510104541 45 107 2.0 6.0 0.00 0.00 0.00 58 1009.0
20260510104033 45 337 1.0 6.0 0.00 0.00 0.00 60 1009.1
20260510103533 44 0 2.0 6.0 0.00 0.00 0.00 60 1009.2
20260510103044 44 146 1.0 7.0 0.00 0.00 0.00 60 1009.3
20260510102530 44 248 2.0 8.0 0.00 0.00 0.00 60 1009.3
20260510102031 45 11 3.0 8.0 0.00 0.00 0.00 58 1009.6
20260510101542 46 104 2.0 9.0 0.00 0.00 0.00 59 1009.4
20260510101029 46 158 2.0 9.0 0.00 0.00 0.00 60 1009.4
20260510100533 46 103 2.0 7.0 0.00 0.00 0.00 59 1009.5
20260510100042 46 176 2.0 7.0 0.00 0.00 0.00 58 1009.5
20260510095532 46 136 2.0 9.0 0.00 0.00 0.00 59 1009.5
20260510095029 45 240 3.0 9.0 0.00 0.00 0.00 60 1009.5
20260510094600 45 147 4.0 9.0 0.00 0.00 0.00 61 1009.5
20260510094030 45 134 3.0 8.0 0.00 0.00 0.00 61 1009.5
20260510093530 45 129 2.0 8.0 0.00 0.00 0.00 62 1009.6
20260510093055 45 142 2.0 8.0 0.00 0.00 0.00 61 1009.5
20260510092533 45 127 3.0 8.0 0.00 0.00 0.00 62 1009.7
20260510092031 45 293 3.0 8.0 0.00 0.00 0.00 62 1009.7
20260510091546 45 217 3.0 13.0 0.00 0.00 0.00 63 1009.8
20260510091032 45 68 2.0 13.0 0.00 0.00 0.00 63 1009.8
20260510090532 45 150 3.0 13.0 0.00 0.00 0.00 62 1009.9
20260510090042 45 137 2.0 11.0 0.00 0.00 0.00 63 1009.9
20260510085531 45 160 3.0 10.0 0.00 0.00 0.00 63 1009.8
20260510085030 44 172 4.0 8.0 0.00 0.00 0.00 63 1009.9
20260510084543 44 134 2.0 7.0 0.00 0.00 0.00 64 1009.9
20260510084034 44 149 1.0 7.0 0.00 0.00 0.00 64 1009.9
20260510083532 44 164 2.0 7.0 0.00 0.00 0.00 64 1010.0
20260510083048 44 138 1.0 8.0 0.00 0.00 0.00 64 1010.0
20260510082531 44 337 4.0 8.0 0.00 0.00 0.00 64 1010.1
20260510082034 44 137 2.0 7.0 0.00 0.00 0.00 64 1010.1
20260510081547 44 340 2.0 7.0 0.00 0.00 0.00 64 1010.2
20260510081031 44 165 3.0 10.0 0.00 0.00 0.00 63 1010.2
20260510080532 44 197 2.0 10.0 0.00 0.00 0.00 62 1010.2
20260510080040 44 123 3.0 10.0 0.00 0.00 0.00 62 1010.2
20260510075531 45 141 2.0 8.0 0.00 0.00 0.00 64 1010.2
20260510075034 45 85 3.0 8.0 0.00 0.00 0.00 62 1010.2
20260510074544 45 177 2.0 9.0 0.00 0.00 0.00 63 1010.3
20260510074032 45 136 3.0 9.0 0.00 0.00 0.00 63 1010.2
20260510073532 45 141 1.0 9.0 0.00 0.00 0.00 65 1010.3
20260510073045 44 0 2.0 9.0 0.00 0.00 0.00 64 1010.2
20260510072532 44 205 2.0 8.0 0.00 0.00 0.00 64 1010.4
20260510072032 45 163 3.0 9.0 0.00 0.00 0.00 64 1010.4
20260510071550 45 129 3.0 11.0 0.00 0.00 0.00 63 1010.4
20260510071030 45 307 3.0 11.0 0.00 0.00 0.00 65 1010.4
20260510070530 45 99 4.0 11.0 0.00 0.00 0.00 64 1010.6
20260510070050 44 73 1.0 7.0 0.00 0.00 0.00 66 1010.4
20260510065532 44 102 3.0 7.0 0.00 0.00 0.00 66 1010.6
20260510065032 44 150 3.0 5.0 0.00 0.00 0.00 65 1010.7
20260510064548 44 72 1.0 6.0 0.00 0.00 0.00 66 1010.7
20260510064032 44 238 1.0 8.0 0.00 0.00 0.00 67 1010.7
20260510063532 43 126 3.0 8.0 0.00 0.00 0.00 69 1010.7
20260510063046 43 148 1.0 8.0 0.00 0.00 0.00 72 1010.7
20260510062531 43 148 1.0 8.0 0.00 0.00 0.00 72 1010.9
20260510062030 42 151 1.0 8.0 0.00 0.00 0.00 73 1010.9
20260510061542 43 140 2.0 7.0 0.00 0.00 0.00 72 1011.0
20260510061032 43 150 2.0 9.0 0.00 0.00 0.00 71 1011.0
20260510060532 43 144 3.0 9.0 0.00 0.00 0.00 72 1011.0
20260510060045 43 116 3.0 7.0 0.00 0.00 0.00 73 1011.1
20260510055529 42 170 2.0 7.0 0.00 0.00 0.00 74 1011.1
20260510055033 42 75 1.0 7.0 0.00 0.00 0.00 75 1011.2
20260510054542 42 92 1.0 7.0 0.00 0.00 0.00 75 1011.1
20260510054031 42 140 1.0 6.0 0.00 0.00 0.00 75 1011.2
20260510053531 42 150 2.0 6.0 0.00 0.00 0.00 77 1011.3
20260510053055 41 119 1.0 4.0 0.00 0.00 0.00 80 1011.4
20260510052530 40 167 1.0 5.0 0.00 0.00 0.00 81 1011.4
20260510052030 40 159 3.0 5.0 0.00 0.00 0.00 81 1011.5
20260510051547 40 126 2.0 6.0 0.00 0.00 0.00 81 1011.5
20260510051031 40 166 1.0 6.0 0.00 0.00 0.00 80 1011.6
20260510050530 40 114 2.0 6.0 0.00 0.00 0.00 79 1011.4
20260510050050 40 152 1.0 6.0 0.00 0.00 0.00 79 1011.5
20260510045531 39 143 2.0 6.0 0.00 0.00 0.00 80 1011.5
20260510045032 39 120 1.0 6.0 0.00 0.00 0.00 80 1011.6
20260510044549 39 148 1.0 4.0 0.00 0.00 0.00 80 1011.7
20260510044032 39 0 0.0 4.0 0.00 0.00 0.00 80 1011.6
20260510043532 39 152 2.0 3.0 0.00 0.00 0.00 80 1011.7
20260510043058 39 171 1.0 3.0 0.00 0.00 0.00 80 1011.7
20260510042529 39 0 0.0 4.0 0.00 0.00 0.00 80 1011.7
20260510042030 39 146 1.0 4.0 0.00 0.00 0.00 80 1011.9
20260510041539 39 158 1.0 4.0 0.00 0.00 0.00 80 1011.9
20260510041030 39 150 1.0 4.0 0.00 0.00 0.00 80 1011.9
20260510040532 39 137 1.0 4.0 0.00 0.00 0.00 80 1012.0
20260510040044 39 136 1.0 4.0 0.00 0.00 0.00 80 1011.9
20260510035528 39 152 2.0 4.0 0.00 0.00 0.00 79 1012.0
20260510035031 39 0 0.0 2.0 0.00 0.00 0.00 79 1012.0
20260510034542 39 0 0.0 0.0 0.00 0.00 0.00 80 1012.1
20260510034032 39 0 0.0 0.0 0.00 0.00 0.00 80 1012.1
20260510033532 39 0 0.0 0.0 0.00 0.00 0.00 81 1012.1
20260510033040 38 0 0.0 5.0 0.00 0.00 0.00 82 1012.1
20260510032531 38 0 0.0 5.0 0.00 0.00 0.00 82 1012.2
20260510032033 37 125 0.0 3.0 0.00 0.00 0.00 83 1012.1
20260510031549 37 0 0.0 2.0 0.00 0.00 0.00 83 1012.1
20260510031031 37 0 0.0 1.0 0.00 0.00 0.00 84 1012.2
20260510030531 36 162 0.0 1.0 0.00 0.00 0.00 84 1012.3
20260510030041 37 0 0.0 2.0 0.00 0.00 0.00 84 1012.3
20260510025531 37 0 0.0 2.0 0.00 0.00 0.00 84 1012.3
20260510025031 37 105 0.0 1.0 0.00 0.00 0.00 83 1012.3
20260510024544 37 264 0.0 2.0 0.00 0.00 0.00 82 1012.4
20260510024031 38 0 0.0 2.0 0.00 0.00 0.00 82 1012.5
20260510023530 38 0 0.0 1.0 0.00 0.00 0.00 82 1012.4
20260510023046 38 0 0.0 3.0 0.00 0.00 0.00 82 1012.5
20260510022532 38 0 0.0 3.0 0.00 0.00 0.00 82 1012.5
20260510022030 39 0 0.0 3.0 0.00 0.00 0.00 82 1012.5
20260510021550 38 0 0.0 3.0 0.00 0.00 0.00 82 1012.6
20260510021031 38 0 0.0 2.0 0.00 0.00 0.00 83 1012.6
20260510020534 39 0 0.0 2.0 0.00 0.00 0.00 82 1012.6
20260510020042 39 0 0.0 2.0 0.00 0.00 0.00 82 1012.6
20260510015530 39 0 0.0 2.0 0.00 0.00 0.00 82 1012.7
20260510015027 39 0 0.0 3.0 0.00 0.00 0.00 82 1012.8
20260510014541 39 0 0.0 3.0 0.00 0.00 0.00 82 1012.7
20260510014032 39 0 0.0 3.0 0.00 0.00 0.00 83 1012.7
20260510013531 39 0 0.0 3.0 0.00 0.00 0.00 84 1012.8
20260510013048 39 152 0.0 3.0 0.00 0.00 0.00 86 1012.9
20260510012532 39 0 0.0 0.0 0.00 0.00 0.00 86 1013.0
20260510012032 40 0 0.0 2.0 0.00 0.00 0.00 86 1013.0
20260510011550 40 0 0.0 2.0 0.00 0.00 0.00 86 1013.0
20260510011031 40 150 0.0 2.0 0.00 0.00 0.00 86 1013.0
20260510010530 40 0 0.0 3.0 0.00 0.00 0.00 87 1013.0
20260510010044 40 158 1.0 4.0 0.00 0.00 0.00 88 1013.0
20260510005529 40 139 1.0 5.0 0.00 0.00 0.00 89 1013.1
20260510005029 40 142 0.0 5.0 0.00 0.00 0.00 89 1013.1
20260510004546 40 0 1.0 5.0 0.00 0.00 0.00 89 1013.0
20260510004032 40 146 0.0 3.0 0.00 0.00 0.00 89 1013.1
20260510003530 40 134 0.0 2.0 0.00 0.00 0.00 89 1013.1
20260510003043 40 111 0.0 3.0 0.00 0.00 0.00 89 1013.2
20260510002532 40 0 0.0 3.0 0.00 0.00 0.00 88 1013.2
20260510002029 40 140 0.0 1.0 0.00 0.00 0.00 88 1013.2
20260510001543 40 0 0.0 3.0 0.00 0.00 0.00 88 1013.3
20260510001030 40 0 0.0 3.0 0.00 0.00 0.00 88 1013.2
20260510000529 40 0 0.0 2.0 0.00 0.00 0.00 88 1013.4
20260510000048 40 0 0.0 2.0 0.00 0.00 0.00 88 1013.4
20260509235529 40 0 0.0 1.0 0.00 0.00 0.00 88 1013.4
20260509235029 40 0 0.0 1.0 0.00 0.00 0.00 89 1013.4
20260509234538 39 251 0.0 3.0 0.00 0.00 0.00 87 1013.4
20260509234032 39 251 1.0 3.0 0.00 0.00 0.00 87 1013.4
20260509233530 40 205 1.0 3.0 0.00 0.00 0.00 85 1013.3
20260509233043 40 265 0.0 2.0 0.00 0.00 0.00 86 1013.3
20260509232531 40 255 1.0 1.0 0.00 0.00 0.00 87 1013.3
20260509232031 40 252 0.0 1.0 0.00 0.00 0.00 86 1013.5
20260509231544 40 246 0.0 1.0 0.00 0.00 0.00 86 1013.6
20260509231031 40 0 0.0 0.0 0.00 0.00 0.00 87 1013.6
20260509230530 39 0 0.0 0.0 0.00 0.00 0.00 86 1013.7
20260509230041 39 0 0.0 0.0 0.00 0.00 0.00 86 1013.6
20260509225530 40 0 0.0 0.0 0.00 0.00 0.00 86 1013.8
20260509225029 40 0 0.0 2.0 0.00 0.00 0.00 85 1013.8
20260509224540 40 0 0.0 2.0 0.00 0.00 0.00 85 1013.8
20260509224030 40 158 0.0 0.0 0.00 0.00 0.00 85 1013.9
20260509223530 40 0 0.0 0.0 0.00 0.00 0.00 85 1013.8
20260509223040 40 0 0.0 0.0 0.00 0.00 0.00 85 1013.8
20260509222532 40 0 0.0 0.0 0.00 0.00 0.00 85 1013.8
20260509222035 40 0 0.0 1.0 0.00 0.00 0.00 86 1013.9
20260509221543 40 0 0.0 2.0 0.00 0.00 0.00 85 1013.9
20260509221030 40 0 1.0 2.0 0.00 0.00 0.00 85 1013.9
20260509220533 41 248 0.0 2.0 0.00 0.00 0.00 85 1013.9
20260509220042 41 0 0.0 0.0 0.00 0.00 0.00 86 1013.9
20260509215532 40 0 0.0 0.0 0.00 0.00 0.00 86 1013.9
20260509215030 40 0 0.0 0.0 0.00 0.00 0.00 86 1014.0
20260509214555 41 0 0.0 0.0 0.00 0.00 0.00 86 1014.1
20260509214029 41 0 0.0 0.0 0.00 0.00 0.00 85 1014.0
20260509213532 41 0 0.0 0.0 0.00 0.00 0.00 86 1014.1
20260509213049 41 0 0.0 0.0 0.00 0.00 0.00 86 1014.1
20260509212529 41 0 0.0 0.0 0.00 0.00 0.00 86 1014.1
20260509212029 41 0 0.0 0.0 0.00 0.00 0.00 86 1014.1
20260509211541 41 0 0.0 0.0 0.00 0.00 0.00 86 1014.1
20260509211030 41 0 0.0 0.0 0.00 0.00 0.00 86 1014.1
20260509210530 41 0 0.0 0.0 0.00 0.00 0.00 85 1014.1
20260509210044 42 0 0.0 0.0 0.00 0.00 0.00 85 1014.0
20260509205530 42 0 0.0 0.0 0.00 0.00 0.00 85 1014.1
20260509205030 42 0 0.0 0.0 0.00 0.00 0.00 85 1014.1
20260509204546 42 0 0.0 0.0 0.00 0.00 0.00 85 1014.2
20260509204029 42 0 0.0 0.0 0.00 0.00 0.00 85 1014.1
20260509203529 42 0 0.0 0.0 0.00 0.00 0.00 85 1014.3
20260509203056 42 0 0.0 0.0 0.00 0.00 0.00 84 1014.2
20260509202530 42 0 0.0 0.0 0.00 0.00 0.00 85 1014.2
20260509202032 42 0 0.0 0.0 0.00 0.00 0.00 85 1014.2
20260509201541 42 0 0.0 0.0 0.00 0.00 0.00 85 1014.2
20260509201029 42 0 0.0 0.0 0.00 0.00 0.00 84 1014.4
20260509200529 43 0 0.0 0.0 0.00 0.00 0.00 84 1014.4
20260509200042 43 0 0.0 0.0 0.00 0.00 0.00 84 1014.3
20260509195531 43 0 0.0 0.0 0.00 0.00 0.00 84 1014.4
20260509195029 43 0 0.0 0.0 0.00 0.00 0.00 84 1014.4
20260509194541 43 0 0.0 0.0 0.00 0.00 0.00 84 1014.3
20260509194030 43 0 0.0 0.0 0.00 0.00 0.00 84 1014.3
20260509193529 43 0 0.0 0.0 0.00 0.00 0.00 84 1014.3
20260509193052 43 0 0.0 0.0 0.00 0.00 0.00 84 1014.4
20260509192531 43 0 0.0 0.0 0.00 0.00 0.00 84 1014.3
20260509192030 43 0 0.0 0.0 0.00 0.00 0.00 84 1014.4
20260509191556 43 0 0.0 0.0 0.00 0.00 0.00 84 1014.3
20260509191029 43 0 0.0 0.0 0.00 0.00 0.00 84 1014.3